[[{"header":{"parameterUnit":"m.s-1","parameterCategory":2,"la1":30.2991,"la2":30.254,"lo1":-89.0895,"lo2":-89.0444,"dy":0.0017,"dx":0.0017,"nx":28,"ny":28,"refTime":"2023-09-25T03:00:00:Z","depth":"0","parameterNumber":2,"parameterNumberName":"U-component_of_CURRENTS"},"data":[0,0,0,0,0,0,0,0,0,0,0,0,0,0,0,0,0,0,0,0,0,0,0,0,0,0,0,0,0,0,0,0,0,0,0,0,0,0,0,0,0,0,0,0,0,0,0,0,0,0,0,0,0,0,0,0,0,0,0.2675,0.2672,0,0.2475,0.2473,0.247,0.2416,0.2417,0.2418,0.2419,0.2381,0.2379,0.2377,0,0,0,0,0,0,0,0,0,0,0,0,0,0.2819,0.2818,0.2675,0.2672,0.267,0.2475,0.2473,0.247,0.2415,0.2417,0.2418,0.2419,0.2382,0.238,0.2377,0,0,0,0,0,0,0,0,0,0,0,0,0,0.2702,0.2817,0.2675,0.2619,0.2612,0.2476,0.2473,0.2469,0.2415,0.2417,0.2418,0.242,0.2383,0.238,0.2377,0.2324,0,0,0.2368,0.2366,0,0,0,0,0,0,0,0,0.2709,0.2697,0.263,0.2623,0.2614,0.2472,0.2509,0.2429,0.2415,0.249,0.2419,0.2421,0.2425,0.2419,0.2376,0.2323,0.2321,0.2367,0.2365,0.2364,0.2363,0,0,0,0,0,0,0,0.2718,0.2704,0.2596,0.2627,0.2617,0.2538,0.2525,0.2492,0.2454,0.2484,0.2479,0.2456,0.2423,0.2378,0.2375,0.232,0.2367,0.2365,0.2363,0.2362,0.222,0.2218,0,0,0,0,0,0,0.275,0.2713,0.2602,0.259,0.2667,0.2535,0.2521,0.2516,0.2451,0.2441,0.2455,0.2454,0.2383,0.2378,0.2374,0.2356,0.2364,0.2361,0.236,0.2221,0.2219,0.2217,0,0,0,0,0,0,0.2754,0.2742,0.261,0.2645,0.2623,0.2532,0.2526,0.2511,0.2477,0.2427,0.2421,0.2438,0.2384,0.2378,0.2345,0.2353,0.236,0.2357,0.2224,0.2221,0.2218,0.2291,0,0,0,0,0,0,0.2759,0.2746,0.2741,0.2649,0.2623,0.2514,0.2524,0.2506,0.2459,0.2457,0.241,0.2407,0.2385,0.2349,0.2342,0.2349,0.2355,0.2226,0.2222,0.2219,0.2291,0.2291,0.2291,0,0,0,0,0,0.2765,0.2719,0.2742,0.2728,0.2624,0.2511,0.2489,0.243,0.2458,0.2414,0.2404,0.2409,0.2321,0.2345,0.2337,0.2344,0.2228,0.2223,0.2219,0.2291,0.2291,0.2291,0,0,0,0,0,0,0.2724,0.2707,0.273,0.2672,0.2606,0.2502,0.2447,0.2436,0.2388,0.2404,0.2388,0.2381,0.2354,0.2322,0.235,0.2283,0.2273,0.2267,0.233,0.233,0.233,0.2351,0.2352,0,0,0,0,0,0.2734,0.2734,0.2677,0.2629,0.2605,0.2545,0.2495,0.2464,0.2412,0.2392,0.2364,0.2339,0.2321,0.2309,0.2267,0.2235,0.2266,0.2226,0.2226,0.2227,0.2232,0.231,0.2321,0.2203,0.2203,0.2203,0,0,0.2704,0.2693,0.2689,0.2628,0.2581,0.2532,0.2517,0.2438,0.2413,0.2399,0.2354,0.2337,0.2309,0.2273,0.2258,0.2256,0.227,0.2221,0.2223,0.2227,0.2307,0.232,0.2331,0.22,0.22,0.2201,0,0,0.2633,0.2642,0.2625,0.2587,0.253,0.2499,0.249,0.2406,0.2386,0.2336,0.2341,0.2335,0.2264,0.2265,0.2261,0.223,0.2267,0.2203,0.2229,0.2306,0.2319,0.233,0.2381,0.2397,0.2206,0.2206,0.2206,0,0.2601,0.259,0.2582,0.2548,0.2528,0.2501,0.2466,0.2424,0.234,0.2347,0.2325,0.229,0.2269,0.2289,0.2269,0.224,0.2278,0.2248,0.2316,0.2328,0.2338,0.2388,0.2404,0.2209,0.2209,0.2208,0.2208,0,0.2525,0.2523,0.2492,0.2496,0.2457,0.2409,0.2384,0.2357,0.2355,0.2334,0.2332,0.23,0.2294,0.2278,0.2264,0.2319,0.232,0.2318,0.234,0.2357,0.2405,0.2421,0.2213,0.2212,0.2211,0.221,0,0,0.2459,0.2455,0.2453,0.2475,0.2445,0.2407,0.2391,0.2376,0.2403,0.2341,0.2371,0.2337,0.2347,0.2339,0.2334,0.2383,0.2485,0.2378,0.2381,0.247,0.265,0.2499,0.2502,0.2515,0.2518,0.252,0.2655,0,0.2418,0.239,0.2395,0.238,0.2374,0.2383,0.2378,0.2372,0.2372,0.2381,0.2393,0.24,0.2365,0.2382,0.2427,0.247,0.253,0.2448,0.2582,0.2586,0.2486,0.2516,0.2319,0.2408,0.2671,0.2673,0.2675,0,0.2362,0.2369,0.2354,0.2396,0.2394,0.2381,0.243,0.2416,0.2442,0.2447,0.2473,0.2474,0.2525,0.2493,0.2609,0.2564,0.2609,0.264,0.2647,0.2493,0.2464,0.2428,0.2428,0.2319,0.27,0.2698,0.2696,0,0.2361,0.2352,0.2365,0.2366,0.2384,0.2399,0.2414,0.244,0.2459,0.2501,0.2527,0.2579,0.2608,0.2684,0.2708,0.2688,0.2834,0.2825,0.2737,0.2727,0.2573,0.2543,0.2515,0.293,0.293,0.293,0.2929,0,0.2338,0.2346,0.2369,0.2376,0.241,0.2415,0.2457,0.2478,0.2517,0.2548,0.2568,0.26,0.266,0.2723,0.2761,0.278,0.2889,0.2748,0.2756,0.2583,0.2554,0.2459,0.2436,0.2935,0.2934,0.2933,0.2932,0,0.232,0.2334,0.2357,0.2395,0.2408,0.2431,0.2477,0.2505,0.2544,0.2588,0.2605,0.2649,0.2709,0.2755,0.2868,0.2828,0.2766,0.2865,0.2631,0.2605,0.2361,0.2348,0.2249,0.2207,0.2792,0.2789,0.2787,0,0.2302,0.2311,0.2372,0.2399,0.2414,0.2449,0.2474,0.2514,0.2537,0.2606,0.2624,0.2682,0.2698,0.2772,0.2721,0.2754,0.2683,0.2566,0.247,0.2315,0.2312,0.2225,0.2195,0.2314,0.2307,0.2302,0.2298,0,0.2279,0.231,0.2343,0.2402,0.2436,0.2467,0.25,0.252,0.2559,0.2589,0.2617,0.2641,0.2643,0.2532,0.2514,0.2503,0.2364,0.2459,0.2387,0.1991,0.1813,0.1786,0.2255,0.2254,0.2258,0.2262,0.2264,0.2266,0.2274,0.2295,0.2354,0.2404,0.2441,0.2464,0.2447,0.2476,0.2494,0.2469,0.255,0.2484,0.2345,0.2264,0.2245,0.1974,0.2081,0.1847,0.1869,0.1815,0.1671,0.2004,0.1943,0.1945,0.1948,0.195,0.1951,0,0.2257,0.2292,0.2347,0.2397,0.2405,0.2434,0.2439,0.238,0.2344,0.2333,0.2316,0.2092,0.1924,0.1792,0.1518,0.1399,0.1366,0.1327,0.119,0.1218,0.1588,0.1456,0.1176,0.1176,0.1176,0.1176,0.1176,0.1176,0.2251,0.2294,0.2326,0.2343,0.2354,0.2291,0.2258,0.218,0.2122,0.1938,0.1764,0.1708,0.1493,0.1169,0.0931,0.0916,0.0882,0.0752,0.0879,0.1137,0.1187,0.1236,0.1104,0.0756,0.0755,0.0399,0.0396,0.0394]},{"header":{"parameterUnit":"m.s-1","parameterCategory":2,"la1":30.2991,"la2":30.254,"lo1":-89.0895,"lo2":-89.0444,"dy":0.0017,"dx":0.0017,"nx":28,"ny":28,"refTime":"2023-09-25T03:00:00:Z","depth":"0","parameterNumber":3,"parameterNumberName":"V-component_of_CURRENTS"},"data":[0,0,0,0,0,0,0,0,0,0,0,0,0,0,0,0,0,0,0,0,0,0,0,0,0,0,0,0,0,0,0,0,0,0,0,0,0,0,0,0,0,0,0,0,0,0,0,0,0,0,0,0,0,0,0,0,0,0,-0.0326,-0.0325,0,-0.0217,-0.0215,-0.0214,-0.0186,-0.0186,-0.0187,-0.0187,-0.0194,-0.0194,-0.0194,0,0,0,0,0,0,0,0,0,0,0,0,0,-0.0334,-0.0335,-0.0326,-0.0325,-0.0323,-0.0217,-0.0215,-0.0214,-0.0186,-0.0186,-0.0187,-0.0187,-0.0194,-0.0194,-0.0194,0,0,0,0,0,0,0,0,0,0,0,0,0,-0.0291,-0.0336,-0.0327,-0.0294,-0.029,-0.0217,-0.0215,-0.0214,-0.0186,-0.0186,-0.0187,-0.0188,-0.0194,-0.0194,-0.0194,-0.0178,0,0,-0.0193,-0.0192,0,0,0,0,0,0,0,0,-0.0294,-0.0291,-0.0301,-0.0296,-0.0292,-0.0213,-0.022,-0.0207,-0.0185,-0.0228,-0.0187,-0.0188,-0.0209,-0.0208,-0.0187,-0.0178,-0.0178,-0.0193,-0.0192,-0.0192,-0.0192,0,0,0,0,0,0,0,-0.0297,-0.0294,-0.0285,-0.0299,-0.0293,-0.0224,-0.0221,-0.0216,-0.022,-0.0224,-0.0221,-0.0205,-0.0208,-0.0188,-0.0188,-0.0179,-0.0193,-0.0192,-0.0192,-0.0192,-0.0148,-0.0147,0,0,0,0,0,0,-0.0315,-0.0299,-0.0289,-0.0282,-0.0292,-0.0224,-0.022,-0.024,-0.0217,-0.0213,-0.0204,-0.0204,-0.0188,-0.0188,-0.0188,-0.0163,-0.0192,-0.0192,-0.0192,-0.0149,-0.0148,-0.0147,0,0,0,0,0,0,-0.0316,-0.0316,-0.0293,-0.0283,-0.0275,-0.0225,-0.0246,-0.0237,-0.0213,-0.0201,-0.0199,-0.0189,-0.0188,-0.0188,-0.0177,-0.0164,-0.0192,-0.0191,-0.015,-0.0149,-0.0147,-0.0117,0,0,0,0,0,0,-0.0317,-0.0318,-0.032,-0.0286,-0.0276,-0.0231,-0.0244,-0.0234,-0.0201,-0.02,-0.0187,-0.0188,-0.0189,-0.0178,-0.0177,-0.0164,-0.0191,-0.0151,-0.0149,-0.0148,-0.0119,-0.0115,-0.0111,0,0,0,0,0,-0.0318,-0.0293,-0.0322,-0.0319,-0.0289,-0.0229,-0.0217,-0.0184,-0.02,-0.017,-0.0177,-0.0189,-0.0166,-0.0177,-0.0176,-0.0162,-0.0152,-0.015,-0.0148,-0.0121,-0.0116,-0.0111,0,0,0,0,0,0,-0.0273,-0.0287,-0.0317,-0.0296,-0.0269,-0.0223,-0.0177,-0.0181,-0.016,-0.0166,-0.0176,-0.0176,-0.0162,-0.0164,-0.0176,-0.0143,-0.0161,-0.0158,-0.0141,-0.0136,-0.0131,-0.011,-0.0191,0,0,0,0,0,-0.0277,-0.0282,-0.0274,-0.0258,-0.0243,-0.0223,-0.0192,-0.0183,-0.0163,-0.0153,-0.0153,-0.0153,-0.015,-0.0146,-0.0139,-0.0121,-0.0096,-0.0111,-0.0107,-0.0103,-0.0084,-0.003,-0.0019,-0.014,-0.014,-0.014,0,0,-0.0254,-0.0262,-0.0263,-0.0251,-0.0229,-0.0195,-0.0205,-0.0156,-0.0138,-0.016,-0.0131,-0.0139,-0.0143,-0.0121,-0.0115,-0.0122,-0.0057,-0.01,-0.0097,-0.008,-0.0027,-0.0015,-0.0004,-0.0138,-0.0138,-0.0139,0,0,-0.0196,-0.0223,-0.0205,-0.0187,-0.016,-0.0152,-0.0144,-0.0113,-0.0104,-0.0083,-0.0102,-0.0094,-0.0085,-0.0078,-0.0079,-0.0045,-0.0039,-0.0054,-0.0012,0.0039,0.005,0.006,0.0103,0.0116,-0.0049,-0.0049,-0.0049,0,-0.0168,-0.0168,-0.0178,-0.0149,-0.013,-0.014,-0.0106,-0.0088,-0.0063,-0.0057,-0.0068,-0.0049,-0.0057,-0.0034,-0.0025,-0.0034,-0.0008,-0.0035,0.0046,0.0056,0.0065,0.0107,0.0122,-0.0047,-0.0048,-0.0048,-0.0048,0,-0.0102,-0.01,-0.0072,-0.0075,-0.005,-0.0014,-0.0011,0.0004,-0.0005,0.0003,0.0025,0.0025,0.0039,0.003,0.0011,0.0063,0.0059,0.0042,0.0034,0.008,0.0121,0.0135,-0.0045,-0.0046,-0.0046,-0.0047,0,0,-0.0057,-0.0038,-0.0033,-0.0033,-0.0017,0.001,0.0033,0.0054,0.0069,0.0086,0.012,0.012,0.0116,0.0117,0.0096,0.0134,0.0211,0.0117,0.0119,0.0162,0.0326,0.0306,0.0319,0.0207,0.021,0.0212,0.0327,0,-0.0011,0.0037,0.0034,0.0074,0.0095,0.0083,0.0107,0.012,0.0126,0.0161,0.0162,0.0188,0.015,0.0155,0.019,0.021,0.0251,0.0182,0.0275,0.0278,0.0256,0.0336,0.0334,0.0435,0.0341,0.0343,0.0345,0,0.0042,0.0061,0.0105,0.0116,0.0126,0.0149,0.0164,0.0187,0.0219,0.0227,0.0255,0.0258,0.031,0.0271,0.0357,0.0314,0.0328,0.0342,0.0346,0.0331,0.0285,0.0375,0.0465,0.0427,0.0367,0.0366,0.0364,0,0.0061,0.0103,0.0129,0.0138,0.0162,0.0175,0.0186,0.0209,0.0232,0.0277,0.031,0.0356,0.0401,0.0436,0.0461,0.0418,0.0564,0.0507,0.0504,0.0502,0.0523,0.0518,0.0593,0.058,0.0579,0.0579,0.0579,0,0.0093,0.0114,0.0141,0.0156,0.0188,0.0198,0.0234,0.0246,0.0292,0.0345,0.0351,0.0418,0.0448,0.0521,0.052,0.0579,0.062,0.0544,0.0545,0.0531,0.0526,0.051,0.0483,0.0583,0.0582,0.0582,0.0581,0,0.0105,0.0121,0.0152,0.0184,0.0194,0.0217,0.0256,0.029,0.0325,0.0403,0.0426,0.0501,0.0603,0.0629,0.0709,0.0667,0.0706,0.071,0.0687,0.0683,0.0603,0.0578,0.0701,0.0702,0.0726,0.0726,0.0727,0,0.0116,0.0136,0.017,0.0185,0.0199,0.0234,0.0262,0.03,0.0348,0.0462,0.0518,0.0629,0.0736,0.084,0.081,0.0834,0.0778,0.0785,0.0691,0.0632,0.0606,0.0601,0.0591,0.0735,0.0735,0.0736,0.0736,0,0.0141,0.015,0.0172,0.0201,0.023,0.0271,0.0324,0.0373,0.0447,0.0538,0.0689,0.0791,0.0882,0.0934,0.0923,0.0897,0.0766,0.0788,0.0754,0.0655,0.0634,0.0622,0.0613,0.0739,0.0738,0.0738,0.0738,0.0738,0.0157,0.0174,0.0198,0.0223,0.0259,0.0323,0.0383,0.0467,0.0583,0.0753,0.0825,0.1001,0.1002,0.101,0.0958,0.0808,0.0818,0.073,0.0718,0.0728,0.0694,0.0681,0.0778,0.0778,0.0778,0.0778,0.0778,0,0.0184,0.0197,0.0221,0.0266,0.0318,0.0333,0.0437,0.0522,0.0691,0.0857,0.1016,0.1123,0.1122,0.1036,0.0862,0.0758,0.0719,0.0694,0.0688,0.0689,0.0709,0.0669,0.0714,0.0714,0.0714,0.0715,0.0715,0.0715,0.0199,0.0224,0.0234,0.0315,0.0358,0.0458,0.0533,0.0666,0.0799,0.1011,0.1133,0.1227,0.1156,0.0936,0.0761,0.0707,0.0662,0.0648,0.0637,0.0621,0.0623,0.0625,0.0581,0.0607,0.0607,0.0626,0.0626,0.0626]}],[{"header":{"parameterUnit":"m.s-1","parameterCategory":2,"la1":30.2991,"la2":30.254,"lo1":-89.0895,"lo2":-89.0444,"dy":0.0017,"dx":0.0017,"nx":28,"ny":28,"refTime":"2023-09-25T03:00:00:Z","depth":"2","parameterNumber":2,"parameterNumberName":"U-component_of_CURRENTS"},"data":[0,0,0,0,0,0,0,0,0,0,0,0,0,0,0,0,0,0,0,0,0,0,0,0,0,0,0,0,0,0,0,0,0,0,0,0,0,0,0,0,0,0,0,0,0,0,0,0,0,0,0,0,0,0,0,0,0,0,0.1467,0.1467,0,0.1502,0.1503,0.1503,0.152,0.152,0.152,0.152,0.1472,0.1471,0.1469,0,0,0,0,0,0,0,0,0,0,0,0,0,0.1448,0.1448,0.1467,0.1467,0.1468,0.1502,0.1503,0.1503,0.152,0.152,0.152,0.152,0.1472,0.1471,0.1469,0,0,0,0,0,0,0,0,0,0,0,0,0,0.1467,0.1448,0.1467,0.148,0.1481,0.1502,0.1503,0.1503,0.152,0.152,0.152,0.152,0.1473,0.1471,0.1469,0.1459,0,0,0.1463,0.1462,0,0,0,0,0,0,0,0,0.1466,0.1468,0.1478,0.1479,0.1481,0.1506,0.1478,0.1484,0.152,0.1506,0.152,0.152,0.1475,0.1473,0.1482,0.1457,0.1455,0.1463,0.1462,0.1461,0.1461,0,0,0,0,0,0,0,0.1465,0.1467,0.1481,0.1478,0.148,0.1496,0.1498,0.148,0.1489,0.1507,0.1508,0.1512,0.1476,0.1484,0.1481,0.1454,0.1463,0.1462,0.146,0.146,0.1417,0.1417,0,0,0,0,0,0,0.1458,0.1465,0.148,0.1482,0.1473,0.1496,0.1499,0.1499,0.1492,0.1491,0.1512,0.1512,0.1487,0.1483,0.1479,0.1486,0.1461,0.1459,0.1458,0.1417,0.1417,0.1417,0,0,0,0,0,0,0.1457,0.1459,0.1479,0.1475,0.1478,0.1496,0.1496,0.1499,0.1508,0.1496,0.1494,0.1517,0.1487,0.1481,0.1462,0.1483,0.1459,0.1457,0.1417,0.1417,0.1417,0.1486,0,0,0,0,0,0,0.1456,0.1458,0.1427,0.1474,0.1478,0.1477,0.1496,0.15,0.151,0.1511,0.1499,0.1495,0.1486,0.1465,0.146,0.148,0.1456,0.1417,0.1417,0.1417,0.1484,0.1489,0.1493,0,0,0,0,0,0.1456,0.142,0.1425,0.1425,0.1444,0.1476,0.1479,0.1493,0.151,0.1503,0.1505,0.1496,0.1461,0.1463,0.1457,0.1478,0.1417,0.1417,0.1417,0.1482,0.1488,0.1493,0,0,0,0,0,0,0.1415,0.142,0.1426,0.1398,0.1428,0.1478,0.1482,0.1493,0.1493,0.1504,0.1492,0.1487,0.1482,0.1459,0.1462,0.1462,0.1439,0.1437,0.149,0.1495,0.15,0.1526,0.1454,0,0,0,0,0,0.1387,0.1372,0.139,0.1389,0.1399,0.1443,0.1451,0.147,0.149,0.1492,0.1483,0.1478,0.1478,0.1469,0.1457,0.1451,0.1471,0.1459,0.1463,0.1467,0.1483,0.1541,0.1554,0.1416,0.1416,0.1416,0,0,0.1387,0.1387,0.1382,0.1379,0.1421,0.1434,0.145,0.1483,0.1498,0.1484,0.1494,0.149,0.1477,0.1481,0.1476,0.1465,0.1513,0.1467,0.1471,0.1485,0.1543,0.1557,0.1569,0.1416,0.1416,0.1416,0,0,0.1397,0.1379,0.1367,0.1378,0.141,0.1435,0.1442,0.1479,0.1493,0.1498,0.1505,0.1514,0.1492,0.1504,0.1506,0.1521,0.1536,0.151,0.1556,0.1612,0.1625,0.1637,0.1678,0.1693,0.1512,0.1512,0.1512,0,0.1383,0.1377,0.1375,0.1375,0.1393,0.1436,0.145,0.1472,0.1494,0.1508,0.1503,0.1526,0.1513,0.1546,0.1559,0.1536,0.1566,0.1543,0.1623,0.1635,0.1645,0.1685,0.17,0.1515,0.1515,0.1514,0.1514,0,0.1388,0.1379,0.1396,0.1403,0.1412,0.1446,0.1472,0.1492,0.1518,0.1532,0.1564,0.1569,0.1586,0.1585,0.1582,0.1648,0.1645,0.1627,0.1621,0.1665,0.1701,0.1717,0.152,0.1519,0.1518,0.1517,0,0,0.1373,0.1384,0.1391,0.1402,0.1429,0.1451,0.1487,0.1521,0.1555,0.1574,0.162,0.164,0.1657,0.1661,0.1666,0.1717,0.1819,0.1714,0.1715,0.1774,0.1949,0.1808,0.1811,0.1828,0.1831,0.1833,0.1945,0,0.1385,0.1383,0.1385,0.1421,0.1432,0.1473,0.1498,0.1533,0.1569,0.1612,0.1654,0.1686,0.1681,0.1709,0.1764,0.1808,0.1862,0.179,0.188,0.1883,0.1769,0.1824,0.1638,0.1709,0.1959,0.1962,0.1964,0,0.1379,0.1379,0.1394,0.1429,0.144,0.1467,0.1534,0.1554,0.1619,0.1654,0.1713,0.1737,0.1824,0.181,0.1937,0.1897,0.1935,0.1965,0.1969,0.1827,0.1769,0.1704,0.1727,0.1989,0.1987,0.1985,0.1983,0,0.1362,0.1389,0.1405,0.1415,0.1451,0.1487,0.1516,0.157,0.1594,0.1689,0.1726,0.1821,0.1882,0.1961,0.201,0.1998,0.2137,0.212,0.2028,0.2018,0.1869,0.1839,0.2214,0.2214,0.2213,0.2213,0.2213,0,0.1351,0.1369,0.141,0.1411,0.1454,0.1479,0.1534,0.1576,0.164,0.1686,0.1746,0.1812,0.1929,0.2002,0.205,0.2078,0.2171,0.2054,0.2044,0.1882,0.1853,0.2095,0.208,0.2217,0.2216,0.2216,0.2215,0,0.133,0.1349,0.1368,0.1414,0.1442,0.1467,0.1536,0.1566,0.1629,0.1705,0.1741,0.184,0.1935,0.2,0.213,0.2106,0.2154,0.2133,0.192,0.188,0.1996,0.1983,0.2073,0.2069,0.2065,0.2063,0.206,0,0.1315,0.1323,0.1366,0.1383,0.1413,0.1468,0.1501,0.1565,0.1597,0.1719,0.1749,0.1851,0.1905,0.1993,0.1977,0.2007,0.209,0.1842,0.1767,0.2004,0.1986,0.1978,0.197,0.1614,0.1608,0.1603,0.1599,0,0.1296,0.1317,0.1327,0.1356,0.1397,0.1446,0.1502,0.1514,0.1602,0.1649,0.1719,0.1766,0.1824,0.175,0.1748,0.1745,0.1817,0.1741,0.2083,0.1645,0.1571,0.1553,0.156,0.1557,0.1561,0.1564,0.1567,0.1568,0.1285,0.1288,0.1305,0.1343,0.1377,0.1413,0.1432,0.1464,0.1489,0.1517,0.1609,0.1596,0.1612,0.1486,0.1446,0.1405,0.1546,0.1486,0.1502,0.1523,0.1417,0.1337,0.1261,0.1264,0.1266,0.1268,0.1269,0,0.1283,0.1298,0.1299,0.1322,0.1346,0.1397,0.1429,0.14,0.1387,0.1386,0.1394,0.123,0.1155,0.1188,0.1046,0.1027,0.1039,0.0993,0.1008,0.1049,0.1086,0.0959,0.0681,0.068,0.0678,0.0677,0,0,0.1276,0.1283,0.1283,0.1314,0.1335,0.1321,0.1331,0.1274,0.1227,0.1104,0.1048,0.1082,0.1126,0.088,0.0838,0.0745,0.0897,0.0705,0.1172,0.1229,0.1265,0.1358,0.1207,0,0,0,0,0]},{"header":{"parameterUnit":"m.s-1","parameterCategory":2,"la1":30.2991,"la2":30.254,"lo1":-89.0895,"lo2":-89.0444,"dy":0.0017,"dx":0.0017,"nx":28,"ny":28,"refTime":"2023-09-25T03:00:00:Z","depth":"2","parameterNumber":3,"parameterNumberName":"V-component_of_CURRENTS"},"data":[0,0,0,0,0,0,0,0,0,0,0,0,0,0,0,0,0,0,0,0,0,0,0,0,0,0,0,0,0,0,0,0,0,0,0,0,0,0,0,0,0,0,0,0,0,0,0,0,0,0,0,0,0,0,0,0,0,0,0.0173,0.0173,0,0.0149,0.0149,0.0149,0.0149,0.015,0.015,0.0151,0.015,0.0149,0.0149,0,0,0,0,0,0,0,0,0,0,0,0,0,0.0185,0.0185,0.0173,0.0173,0.0173,0.0149,0.0149,0.0148,0.0149,0.015,0.015,0.0151,0.015,0.0149,0.0149,0,0,0,0,0,0,0,0,0,0,0,0,0,0.0171,0.0185,0.0173,0.0171,0.0171,0.0149,0.0149,0.0148,0.0149,0.015,0.0151,0.0151,0.015,0.0149,0.0149,0.013,0,0,0.0146,0.0146,0,0,0,0,0,0,0,0,0.0172,0.017,0.0172,0.0171,0.0171,0.0154,0.0153,0.0144,0.0149,0.0156,0.0151,0.0152,0.0154,0.0153,0.0144,0.013,0.013,0.0146,0.0146,0.0146,0.0145,0,0,0,0,0,0,0,0.0173,0.0171,0.0162,0.0172,0.0171,0.016,0.0159,0.0151,0.015,0.0155,0.0156,0.0155,0.0154,0.0145,0.0144,0.013,0.0146,0.0146,0.0145,0.0145,0.0113,0.0113,0,0,0,0,0,0,0.018,0.0172,0.0163,0.0162,0.0175,0.016,0.0159,0.0158,0.015,0.015,0.0155,0.0155,0.0146,0.0145,0.0144,0.014,0.0146,0.0145,0.0145,0.0113,0.0113,0.0113,0,0,0,0,0,0,0.018,0.0179,0.0164,0.0168,0.0165,0.0159,0.0158,0.0157,0.0147,0.015,0.015,0.0146,0.0146,0.0145,0.0141,0.0139,0.0145,0.0144,0.0114,0.0113,0.0113,0.012,0,0,0,0,0,0,0.018,0.0179,0.0189,0.0168,0.0165,0.0154,0.0158,0.0156,0.0146,0.0147,0.0142,0.0143,0.0147,0.0142,0.014,0.0139,0.0143,0.0115,0.0114,0.0113,0.012,0.0119,0.0119,0,0,0,0,0,0.0181,0.0186,0.0189,0.0189,0.0176,0.0154,0.0151,0.0148,0.0145,0.0141,0.014,0.0143,0.0136,0.0141,0.0139,0.0137,0.0115,0.0114,0.0113,0.012,0.0119,0.0119,0,0,0,0,0,0,0.018,0.0186,0.0189,0.0193,0.0178,0.0155,0.0151,0.0143,0.0136,0.0135,0.0137,0.0138,0.0134,0.013,0.0136,0.0124,0.0125,0.0124,0.0131,0.0131,0.013,0.0156,0.0143,0,0,0,0,0,0.0189,0.0196,0.0191,0.0184,0.0183,0.0164,0.0157,0.0149,0.0137,0.0133,0.0133,0.0129,0.0126,0.0125,0.0122,0.0113,0.0127,0.0109,0.0108,0.0108,0.0127,0.0147,0.0151,0.0109,0.0109,0.0109,0,0,0.0178,0.0185,0.0185,0.0185,0.0172,0.0169,0.0161,0.0141,0.0139,0.0134,0.0133,0.0127,0.0123,0.0119,0.0116,0.0117,0.0123,0.0107,0.0107,0.0126,0.0146,0.0151,0.0155,0.0109,0.0109,0.0109,0,0,0.0163,0.0172,0.0181,0.0177,0.0169,0.016,0.0155,0.0137,0.0136,0.0127,0.0127,0.0128,0.0113,0.0121,0.012,0.0112,0.012,0.0097,0.0117,0.0136,0.014,0.0144,0.0156,0.0161,0.0097,0.0097,0.0097,0,0.0158,0.0169,0.0173,0.018,0.018,0.0158,0.0158,0.0149,0.0132,0.0143,0.013,0.0131,0.0122,0.0134,0.0128,0.0115,0.0121,0.0121,0.0137,0.0142,0.0146,0.0157,0.0163,0.0097,0.0097,0.0097,0.0097,0,0.0155,0.0165,0.0161,0.0175,0.0172,0.016,0.0157,0.0156,0.0148,0.015,0.0159,0.0148,0.0159,0.0142,0.0131,0.015,0.0143,0.0135,0.0145,0.0151,0.0162,0.0167,0.0098,0.0098,0.0098,0.0098,0,0,0.0145,0.0163,0.0164,0.0179,0.0173,0.0171,0.017,0.0181,0.0205,0.0184,0.0216,0.0195,0.0198,0.0197,0.0181,0.0188,0.0207,0.017,0.0171,0.0192,0.0244,0.0219,0.0223,0.0199,0.02,0.0201,0.0236,0,0.0145,0.0169,0.0174,0.0184,0.0196,0.0193,0.0205,0.0211,0.0219,0.0246,0.0237,0.0257,0.0215,0.0224,0.0222,0.0222,0.0224,0.0199,0.0227,0.0228,0.0214,0.023,0.0232,0.0261,0.0242,0.0243,0.0243,0,0.0152,0.0173,0.0191,0.0221,0.0227,0.0229,0.0266,0.0278,0.0308,0.0319,0.0332,0.0328,0.0339,0.0299,0.0307,0.0291,0.0269,0.0258,0.0259,0.0245,0.0215,0.0253,0.0272,0.0253,0.0252,0.0252,0.0251,0,0.0164,0.0187,0.0208,0.0214,0.024,0.0255,0.0271,0.0303,0.034,0.0375,0.0414,0.0409,0.0432,0.0404,0.0368,0.0344,0.0376,0.0344,0.0301,0.0299,0.0313,0.0309,0.035,0.035,0.035,0.035,0.035,0,0.0174,0.0194,0.0218,0.0232,0.0273,0.0282,0.0332,0.0357,0.0408,0.0478,0.0461,0.0512,0.046,0.0463,0.0408,0.0381,0.0411,0.032,0.0313,0.0311,0.0307,0.0311,0.0306,0.0351,0.0351,0.0351,0.035,0,0.0185,0.0197,0.023,0.0264,0.0278,0.0311,0.0371,0.0422,0.0468,0.056,0.0579,0.0606,0.0614,0.0554,0.0523,0.0451,0.0415,0.039,0.0385,0.0376,0.0312,0.0307,0.0357,0.0356,0.0356,0.0356,0.0355,0,0.0193,0.021,0.0255,0.0281,0.0297,0.0345,0.039,0.0443,0.0512,0.0626,0.0686,0.0712,0.0743,0.068,0.0557,0.0466,0.044,0.0393,0.0342,0.0328,0.0316,0.0311,0.0307,0.0361,0.036,0.036,0.036,0,0.0214,0.0227,0.0261,0.0312,0.0357,0.0422,0.0495,0.0557,0.0651,0.0735,0.0848,0.0878,0.0816,0.072,0.0575,0.0502,0.0404,0.0386,0.0403,0.0348,0.0332,0.0319,0.0315,0.0359,0.0359,0.0359,0.0359,0.0359,0.0232,0.0264,0.0304,0.0359,0.0413,0.0506,0.0566,0.0662,0.0781,0.0906,0.0933,0.0958,0.0854,0.065,0.0544,0.0401,0.0405,0.0341,0.0342,0.0343,0.0326,0.0309,0.033,0.033,0.033,0.0329,0.0329,0,0.0263,0.03,0.035,0.043,0.0496,0.0519,0.0646,0.0714,0.0854,0.0926,0.0996,0.0874,0.0789,0.0658,0.0452,0.0344,0.0329,0.0301,0.0311,0.0314,0.0316,0.0297,0.0293,0.0293,0.0292,0.0292,0,0,0.0287,0.034,0.0376,0.0487,0.0542,0.0647,0.0718,0.0815,0.0875,0.0929,0.0918,0.0917,0.079,0.0628,0.0502,0.0396,0.037,0.0365,0.0406,0.0437,0.044,0.0353,0.0329,0,0,0,0,0]}],[{"header":{"parameterUnit":"m.s-1","parameterCategory":2,"la1":30.2991,"la2":30.254,"lo1":-89.0895,"lo2":-89.0444,"dy":0.0017,"dx":0.0017,"nx":28,"ny":28,"refTime":"2023-09-25T03:00:00:Z","depth":"4","parameterNumber":2,"parameterNumberName":"U-component_of_CURRENTS"},"data":[0,0,0,0,0,0,0,0,0,0,0,0,0,0,0,0,0,0,0,0,0,0,0,0,0,0,0,0,0,0,0,0,0,0,0,0,0,0,0,0,0,0,0,0,0,0,0,0,0,0,0,0,0,0,0,0,0,0,0.0489,0.049,0,0.0572,0.0573,0.0574,0.0627,0.0628,0.0628,0.0628,0.0656,0.0656,0.0657,0,0,0,0,0,0,0,0,0,0,0,0,0,0.045,0.045,0.0489,0.049,0.0491,0.0572,0.0573,0.0574,0.0627,0.0628,0.0628,0.0629,0.0656,0.0656,0.0657,0,0,0,0,0,0,0,0,0,0,0,0,0,0.0493,0.045,0.0488,0.0528,0.0532,0.0572,0.0573,0.0574,0.0627,0.0628,0.0628,0.0629,0.0656,0.0656,0.0657,0.0648,0,0,0.0659,0.0659,0,0,0,0,0,0,0,0,0.049,0.0494,0.0521,0.0525,0.053,0.0591,0.057,0.0596,0.0627,0.059,0.0628,0.0629,0.0629,0.0632,0.0646,0.0649,0.0651,0.0659,0.0659,0.0659,0.0659,0,0,0,0,0,0,0,0.0487,0.0491,0.0521,0.0522,0.0528,0.0567,0.0573,0.0576,0.0603,0.0593,0.0598,0.0608,0.0631,0.0645,0.0647,0.0651,0.0659,0.0659,0.0659,0.066,0.0691,0.0692,0,0,0,0,0,0,0.0474,0.0488,0.0518,0.0523,0.0512,0.0567,0.0574,0.057,0.0605,0.0612,0.0607,0.061,0.0644,0.0646,0.0648,0.0685,0.0659,0.066,0.066,0.0691,0.0691,0.0692,0,0,0,0,0,0,0.0472,0.0475,0.0515,0.0509,0.0517,0.0566,0.0562,0.0571,0.0615,0.0616,0.0622,0.0646,0.0645,0.0647,0.0662,0.0684,0.066,0.066,0.069,0.0691,0.0692,0.0729,0,0,0,0,0,0,0.0471,0.0474,0.0479,0.0508,0.0517,0.0552,0.0562,0.0572,0.0619,0.0624,0.065,0.0652,0.0645,0.0661,0.0663,0.0684,0.0661,0.0689,0.069,0.0691,0.0727,0.0731,0.0734,0,0,0,0,0,0.0469,0.0476,0.0478,0.0483,0.0517,0.0553,0.0562,0.0599,0.0621,0.0641,0.0652,0.0653,0.0668,0.0662,0.0663,0.0686,0.0689,0.069,0.0691,0.0725,0.073,0.0734,0,0,0,0,0,0,0.047,0.0483,0.0486,0.0498,0.0527,0.0563,0.0592,0.0616,0.0645,0.0653,0.0657,0.0658,0.068,0.0676,0.0669,0.0697,0.068,0.0682,0.0706,0.071,0.0713,0.0715,0.0661,0,0,0,0,0,0.0467,0.0474,0.0495,0.0509,0.0524,0.0563,0.0588,0.061,0.0635,0.0652,0.0662,0.0672,0.0682,0.0691,0.0692,0.0708,0.0718,0.0724,0.0727,0.0731,0.0732,0.0773,0.0781,0.0696,0.0696,0.0696,0,0,0.0471,0.0482,0.0486,0.051,0.0538,0.0557,0.0581,0.0624,0.0643,0.0646,0.0676,0.0685,0.0688,0.0703,0.0713,0.0706,0.0759,0.0732,0.0735,0.0735,0.0776,0.0784,0.0792,0.0696,0.0696,0.0696,0,0,0.0484,0.0493,0.0503,0.0522,0.0561,0.0579,0.0596,0.0635,0.066,0.0685,0.069,0.0712,0.0728,0.0731,0.0736,0.076,0.0775,0.0769,0.0792,0.0833,0.084,0.0847,0.087,0.0878,0.0773,0.0773,0.0773,0,0.0492,0.0495,0.0517,0.0532,0.0543,0.0588,0.06,0.0634,0.0671,0.0687,0.0698,0.0739,0.074,0.0766,0.0772,0.077,0.0794,0.0778,0.0839,0.0846,0.0852,0.0874,0.0883,0.0775,0.0775,0.0775,0.0775,0,0.0503,0.0512,0.0526,0.0543,0.0561,0.0586,0.0615,0.0644,0.0679,0.0708,0.0753,0.0765,0.0795,0.0798,0.0794,0.084,0.0842,0.0839,0.0831,0.0864,0.0883,0.0892,0.0778,0.0777,0.0777,0.0776,0,0,0.0508,0.0525,0.0533,0.0534,0.0564,0.0581,0.0609,0.0645,0.0685,0.0727,0.0772,0.0797,0.0833,0.084,0.085,0.0878,0.0938,0.0884,0.0885,0.091,0.1029,0.0921,0.092,0.096,0.0962,0.0963,0.1025,0,0.0513,0.0518,0.053,0.0546,0.0548,0.0578,0.0601,0.064,0.069,0.0746,0.0789,0.0839,0.0845,0.0875,0.0909,0.093,0.0964,0.0921,0.0989,0.0991,0.0895,0.0927,0.0969,0.1031,0.1033,0.1035,0.1036,0,0.0522,0.0517,0.0515,0.0529,0.0538,0.056,0.0603,0.0634,0.0714,0.0756,0.0827,0.0876,0.0933,0.0934,0.1013,0.0994,0.1018,0.103,0.1033,0.0924,0.0899,0.0991,0.1052,0.105,0.1049,0.1048,0.1047,0,0.05,0.0515,0.0505,0.0508,0.0531,0.055,0.0578,0.0643,0.0677,0.0781,0.083,0.0916,0.0966,0.1022,0.1062,0.1055,0.1136,0.1127,0.1052,0.1045,0.1109,0.1101,0.1185,0.1185,0.1184,0.1184,0.1184,0,0.049,0.0489,0.0502,0.0501,0.0509,0.0539,0.0582,0.0628,0.0704,0.0756,0.0851,0.09,0.0995,0.1054,0.1085,0.1093,0.1166,0.1059,0.1056,0.1121,0.1114,0.1115,0.1106,0.1187,0.1186,0.1186,0.1185,0,0.0463,0.0471,0.047,0.0494,0.0499,0.0515,0.0567,0.0605,0.069,0.076,0.0798,0.0903,0.0981,0.1056,0.1132,0.1104,0.1128,0.1112,0.1174,0.1173,0.1006,0.0998,0.1037,0.1034,0.1031,0.1029,0.1027,0,0.0444,0.0435,0.0456,0.0457,0.0473,0.0496,0.0511,0.0585,0.0625,0.0748,0.0774,0.0881,0.0948,0.0984,0.1047,0.1101,0.1086,0.1083,0.1042,0.0998,0.0993,0.0989,0.0986,0.1023,0.1022,0.1021,0.102,0,0.0397,0.0416,0.0414,0.0414,0.0432,0.0443,0.048,0.0503,0.0598,0.0678,0.0749,0.0802,0.0874,0.0929,0.0976,0.1007,0.1075,0.1054,0.1059,0.1021,0.0981,0.0977,0.0977,0.1011,0.1012,0.1013,0.1014,0,0.0369,0.0357,0.0361,0.0367,0.0379,0.039,0.042,0.0463,0.0508,0.0652,0.066,0.0781,0.0862,0.0878,0.0919,0.0943,0.0927,0.0887,0.0901,0.0912,0.0838,0.0768,0.0733,0,0,0,0,0,0.0331,0.0309,0.0304,0.0308,0.0328,0.034,0.0389,0.0429,0.0521,0.0554,0.0613,0.0684,0.0747,0.0785,0.079,0.0846,0.0922,0.0841,0.088,0.0958,0.0969,0.0891,0,0,0,0,0,0,0.0301,0.0283,0.028,0.0262,0.0262,0.0275,0.0314,0.0381,0.0403,0.0505,0.055,0.0615,0.0693,0.0752,0.0772,0.0784,0.0785,0.0901,0.0898,0.0951,0.0962,0.097,0.0895,0,0,0,0,0]},{"header":{"parameterUnit":"m.s-1","parameterCategory":2,"la1":30.2991,"la2":30.254,"lo1":-89.0895,"lo2":-89.0444,"dy":0.0017,"dx":0.0017,"nx":28,"ny":28,"refTime":"2023-09-25T03:00:00:Z","depth":"4","parameterNumber":3,"parameterNumberName":"V-component_of_CURRENTS"},"data":[0,0,0,0,0,0,0,0,0,0,0,0,0,0,0,0,0,0,0,0,0,0,0,0,0,0,0,0,0,0,0,0,0,0,0,0,0,0,0,0,0,0,0,0,0,0,0,0,0,0,0,0,0,0,0,0,0,0,0.0309,0.0309,0,0.0283,0.0283,0.0283,0.0289,0.0289,0.029,0.029,0.0293,0.0293,0.0292,0,0,0,0,0,0,0,0,0,0,0,0,0,0.029,0.0291,0.0309,0.0309,0.0309,0.0283,0.0283,0.0283,0.0289,0.0289,0.029,0.0291,0.0294,0.0293,0.0292,0,0,0,0,0,0,0,0,0,0,0,0,0,0.0284,0.0291,0.0309,0.0309,0.0309,0.0283,0.0283,0.0282,0.0288,0.0289,0.029,0.0291,0.0294,0.0293,0.0292,0.0271,0,0,0.029,0.029,0,0,0,0,0,0,0,0,0.0285,0.0285,0.0309,0.0309,0.0309,0.0291,0.0277,0.028,0.0288,0.0295,0.029,0.0291,0.0295,0.0294,0.0286,0.0271,0.0271,0.029,0.029,0.0289,0.0289,0,0,0,0,0,0,0,0.0285,0.0286,0.0298,0.0309,0.0309,0.0286,0.0286,0.0277,0.0291,0.0295,0.0295,0.0294,0.0295,0.0287,0.0286,0.0271,0.029,0.029,0.0289,0.0289,0.027,0.027,0,0,0,0,0,0,0.0293,0.0287,0.0299,0.0297,0.03,0.0286,0.0286,0.0295,0.029,0.029,0.0293,0.0294,0.0287,0.0287,0.0286,0.0291,0.0289,0.0289,0.0288,0.027,0.027,0.027,0,0,0,0,0,0,0.0293,0.0295,0.03,0.0291,0.029,0.0286,0.0295,0.0294,0.0284,0.0288,0.0289,0.0284,0.0288,0.0287,0.0288,0.029,0.0288,0.0288,0.027,0.027,0.027,0.0282,0,0,0,0,0,0,0.0293,0.0295,0.0297,0.0292,0.0291,0.0284,0.0294,0.0293,0.0282,0.0283,0.0281,0.0282,0.0289,0.0289,0.0288,0.0289,0.0287,0.027,0.027,0.027,0.0281,0.0282,0.0282,0,0,0,0,0,0.0292,0.0291,0.0297,0.0298,0.0297,0.0283,0.028,0.0278,0.0281,0.0273,0.0282,0.0282,0.0287,0.0289,0.0287,0.0288,0.027,0.027,0.027,0.0281,0.0282,0.0282,0,0,0,0,0,0,0.0275,0.0291,0.0298,0.03,0.0293,0.0285,0.0276,0.0272,0.0269,0.0274,0.0279,0.0281,0.0284,0.028,0.0281,0.0282,0.0279,0.0278,0.0288,0.0289,0.0289,0.0293,0.0287,0,0,0,0,0,0.0275,0.0283,0.0287,0.0285,0.0285,0.0279,0.0271,0.027,0.0269,0.0267,0.0269,0.0273,0.0279,0.028,0.0282,0.0275,0.0263,0.0275,0.0276,0.0276,0.0278,0.0257,0.0256,0.0269,0.0269,0.0269,0,0,0.0266,0.0276,0.0279,0.0282,0.028,0.0278,0.0276,0.0265,0.0266,0.0268,0.0271,0.0274,0.0278,0.0283,0.0283,0.028,0.0265,0.0276,0.0276,0.0278,0.0257,0.0256,0.0255,0.0269,0.0269,0.0269,0,0,0.0251,0.0265,0.0267,0.0267,0.0266,0.0266,0.0263,0.0257,0.026,0.0258,0.0269,0.0272,0.027,0.0281,0.0285,0.0284,0.027,0.0282,0.0287,0.0267,0.0266,0.0264,0.0244,0.0241,0.0281,0.0281,0.0281,0,0.0238,0.0252,0.026,0.0262,0.0268,0.0264,0.0265,0.0262,0.0256,0.0266,0.0262,0.0271,0.0272,0.0287,0.0291,0.0286,0.027,0.0286,0.0268,0.0266,0.0265,0.0244,0.0241,0.0281,0.0281,0.0281,0.0281,0,0.0231,0.024,0.024,0.0255,0.0256,0.0255,0.0263,0.0265,0.0269,0.027,0.028,0.0279,0.0288,0.0285,0.0289,0.0285,0.0276,0.0272,0.0267,0.0264,0.0243,0.0239,0.0282,0.0282,0.0282,0.0281,0,0,0.0214,0.0233,0.0235,0.0252,0.0259,0.0265,0.0273,0.0287,0.0303,0.0291,0.0305,0.0308,0.0306,0.031,0.0309,0.029,0.0265,0.0276,0.0275,0.0258,0.0217,0.0213,0.0208,0.0255,0.0255,0.0254,0.0205,0,0.0209,0.0223,0.0234,0.0251,0.0265,0.0279,0.0294,0.0305,0.0312,0.0322,0.0318,0.0328,0.0315,0.0323,0.03,0.028,0.0256,0.0279,0.0221,0.0219,0.0217,0.0204,0.0253,0.0203,0.0202,0.0201,0.02,0,0.0204,0.0221,0.024,0.0278,0.0287,0.0298,0.0341,0.0351,0.0363,0.0369,0.0368,0.036,0.0347,0.0329,0.0279,0.0293,0.0256,0.0228,0.0226,0.0216,0.0208,0.0206,0.0193,0.0194,0.0194,0.0195,0.0195,0,0.0207,0.0231,0.0255,0.0265,0.0299,0.0322,0.0345,0.0368,0.0393,0.0398,0.0411,0.0384,0.0379,0.0326,0.0271,0.0273,0.0202,0.02,0.0159,0.0158,0.0171,0.0173,0.0153,0.0153,0.0153,0.0153,0.0154,0,0.0208,0.023,0.0264,0.0278,0.0322,0.0341,0.0388,0.0405,0.0432,0.0459,0.0438,0.0439,0.0375,0.033,0.0272,0.0203,0.0202,0.0156,0.0144,0.0177,0.018,0.0168,0.0171,0.0152,0.0152,0.0152,0.0153,0,0.0209,0.0224,0.026,0.0305,0.0323,0.0359,0.0423,0.0458,0.0476,0.0508,0.0512,0.048,0.0421,0.0352,0.0262,0.0213,0.0143,0.0117,0.0156,0.0147,0.0111,0.0115,0.0069,0.0069,0.0068,0.0068,0.0067,0,0.021,0.0227,0.0282,0.0311,0.0335,0.0391,0.0435,0.0477,0.051,0.0529,0.054,0.0497,0.0465,0.0335,0.0255,0.0144,0.0129,0.0088,0.01,0.0109,0.0102,0.0106,0.011,0.0067,0.0066,0.0066,0.0066,0,0.0222,0.0243,0.0272,0.0329,0.038,0.0441,0.0498,0.0519,0.0563,0.0582,0.0563,0.0504,0.0435,0.0332,0.0247,0.0166,0.0112,0.0082,0.0083,0.0094,0.0106,0.01,0.0104,0.0064,0.0065,0.0065,0.0065,0,0.0232,0.0257,0.0298,0.0348,0.0414,0.0472,0.05,0.0538,0.0572,0.0586,0.057,0.0505,0.0464,0.0342,0.0259,0.0184,0.0167,0.0137,0.0134,0.0135,0.017,0.0195,0.0168,0,0,0,0,0,0.0243,0.0272,0.0318,0.0376,0.0443,0.0483,0.0539,0.0561,0.059,0.0583,0.0581,0.0519,0.0404,0.0346,0.0271,0.0245,0.0149,0.0153,0.0112,0.0055,0.0057,0.0086,0,0,0,0,0,0,0.0251,0.0291,0.0316,0.0397,0.0439,0.052,0.0553,0.057,0.056,0.0568,0.0504,0.0495,0.0378,0.0452,0.0269,0.0246,0.0207,0.0107,0.0105,0.0054,0.0056,0.0057,0.0088,0,0,0,0,0]}]]